Location: Clermont
(50.2608°N, 4.3172°E)
Time: 21:53:19
(UTC+00:00)

JB-3 - Pass Details

Date: 13 August 2020
Orbit: 527 x 588 km, 97.3° (Epoch: 22 September)

Event Time Altitude Azimuth Distance (km) Brightness Sun altitude
Rises 22:05:10 0° 11° (NNE) 2,757 8.7 -21.6°
Reaches altitude 10° 22:07:17 10° 10° (N) 1,867 7.7 -21.8°
Maximum altitude 22:11:20 77° 285° (WNW) 592 4.4 -22.1°
Enters shadow 22:11:57 62° 221° (SW) 650 4.4 -22.1°
